Location: Days
(41.3591°N, 106.7339°W)
Time: 01:11:18
(UTC+00:00)

STRAND 1 - Pass Details

Date: 30 June 2022
Orbit: 767 x 781 km, 98.4° (Epoch: 07 August)

Event Time Altitude Azimuth Distance (km) Brightness Sun altitude
Rises 03:32:20 0° 357° (N) 3,269 ? -8.0°
Reaches altitude 10° 03:35:20 10° 339° (NNW) 2,334 ? -8.5°
Maximum altitude 03:38:42 18° 298° (WNW) 1,835 ? -8.9°
Drops below altitude 10° 03:42:03 10° 257° (WSW) 2,318 ? -9.4°
Sets 03:45:02 0° 238° (WSW) 3,238 ? -9.8°
